| time (UTC) | temp F | wind direction | speed MPH | gust MPH | rain 1hr in | rain 24hr in | rain mn in | humidity % | barometer mb |
| 20260506145551 | 64 | 96 | 3.0 | 6.0 | 0.00 | 0.00 | 0.00 | 44 | 1219.5 |
| 20260506144900 | 64 | 79 | 4.0 | 5.0 | 0.00 | 0.00 | 0.00 | 44 | 1219.5 |
| 20260506144400 | 64 | 90 | 3.0 | 6.0 | 0.00 | 0.00 | 0.00 | 44 | 1219.5 |
| 20260506143900 | 64 | 68 | 3.0 | 6.0 | 0.00 | 0.00 | 0.00 | 44 | 1219.5 |
| 20260506143400 | 64 | 112 | 3.0 | 4.0 | 0.00 | 0.00 | 0.00 | 44 | 1219.5 |
| 20260506142900 | 64 | 82 | 1.0 | 4.0 | 0.00 | 0.00 | 0.00 | 44 | 1219.5 |
| 20260506142400 | 64 | 112 | 3.0 | 4.0 | 0.00 | 0.00 | 0.00 | 44 | 1219.5 |
| 20260506141900 | 64 | 105 | 3.0 | 4.0 | 0.00 | 0.00 | 0.00 | 44 | 1219.5 |
| 20260506141400 | 64 | 135 | 2.0 | 4.0 | 0.00 | 0.00 | 0.00 | 44 | 1219.5 |
| 20260506140900 | 64 | 112 | 4.0 | 4.0 | 0.00 | 0.00 | 0.00 | 44 | 1217.5 |
| 20260506140209 | 64 | 90 | 3.0 | 7.0 | 0.00 | 0.00 | 0.00 | 44 | 1217.5 |
| 20260506135708 | 64 | 128 | 6.0 | 7.0 | 0.00 | 0.00 | 0.00 | 43 | 1217.5 |
| 20260506135017 | 65 | 68 | 1.0 | 3.0 | 0.00 | 0.00 | 0.00 | 43 | 1217.5 |
| 20260506134517 | 65 | 68 | 1.0 | 3.0 | 0.00 | 0.00 | 0.00 | 43 | 1217.5 |
| 20260506134017 | 65 | 112 | 3.0 | 3.0 | 0.00 | 0.00 | 0.00 | 43 | 1220.5 |
| 20260506133517 | 65 | 112 | 0.0 | 3.0 | 0.00 | 0.00 | 0.00 | 43 | 1220.5 |
| 20260506133017 | 65 | 112 | 2.0 | 3.0 | 0.00 | 0.00 | 0.00 | 43 | 1220.5 |
| 20260506132517 | 65 | 68 | 1.0 | 3.0 | 0.00 | 0.00 | 0.00 | 43 | 1220.5 |
| 20260506131826 | 65 | 128 | 2.0 | 3.0 | 0.00 | 0.00 | 0.00 | 43 | 1220.5 |
| 20260506131326 | 66 | 112 | 3.0 | 3.0 | 0.00 | 0.00 | 0.00 | 43 | 1220.5 |
| 20260506130826 | 66 | 68 | 3.0 | 3.0 | 0.00 | 0.00 | 0.00 | 43 | 1219.5 |
| 20260506130134 | 66 | 112 | 1.0 | 4.0 | 0.00 | 0.00 | 0.00 | 43 | 1219.5 |
| 20260506125634 | 66 | 120 | 3.0 | 4.0 | 0.00 | 0.00 | 0.00 | 43 | 1217.5 |
| 20260506125135 | 66 | 120 | 2.0 | 3.0 | 0.00 | 0.00 | 0.00 | 42 | 1217.5 |
| 20260506124635 | 66 | 112 | 3.0 | 3.0 | 0.00 | 0.00 | 0.00 | 42 | 1217.5 |
| 20260506124135 | 66 | 158 | 1.0 | 4.0 | 0.00 | 0.00 | 0.00 | 42 | 1217.5 |
| 20260506123635 | 66 | 112 | 2.0 | 5.0 | 0.00 | 0.00 | 0.00 | 42 | 1217.5 |
| 20260506123135 | 67 | 150 | 3.0 | 5.0 | 0.00 | 0.00 | 0.00 | 42 | 1217.5 |
| 20260506122443 | 67 | 148 | 1.0 | 3.0 | 0.00 | 0.00 | 0.00 | 42 | 1220.5 |
| 20260506121943 | 67 | 135 | 1.0 | 2.0 | 0.00 | 0.00 | 0.00 | 42 | 1220.5 |
| 20260506121443 | 67 | 188 | 1.0 | 3.0 | 0.00 | 0.00 | 0.00 | 42 | 1220.5 |
| 20260506120943 | 67 | 124 | 1.0 | 3.0 | 0.00 | 0.00 | 0.00 | 42 | 1219.5 |
| 20260506120443 | 67 | 112 | 0.0 | 3.0 | 0.00 | 0.00 | 0.00 | 42 | 1219.5 |
| 20260506115943 | 67 | 128 | 1.0 | 3.0 | 0.00 | 0.00 | 0.00 | 42 | 1219.5 |
| 20260506115252 | 67 | 94 | 1.0 | 3.0 | 0.00 | 0.00 | 0.00 | 41 | 1219.5 |
| 20260506114752 | 67 | 128 | 0.0 | 3.0 | 0.00 | 0.00 | 0.00 | 41 | 1219.5 |
| 20260506114252 | 67 | 82 | 2.0 | 3.0 | 0.00 | 0.00 | 0.00 | 41 | 1220.5 |
| 20260506113601 | 68 | 112 | 1.0 | 3.0 | 0.00 | 0.00 | 0.00 | 40 | 1220.5 |
| 20260506113100 | 68 | 98 | 2.0 | 3.0 | 0.00 | 0.00 | 0.00 | 40 | 1220.5 |
| 20260506112600 | 68 | 107 | 1.0 | 3.0 | 0.00 | 0.00 | 0.00 | 39 | 1221.5 |
| 20260506112100 | 68 | 90 | 2.0 | 4.0 | 0.00 | 0.00 | 0.00 | 39 | 1221.5 |
| 20260506111600 | 68 | 158 | 3.0 | 4.0 | 0.00 | 0.00 | 0.00 | 39 | 1221.5 |
| 20260506111101 | 68 | 158 | 0.0 | 2.0 | 0.00 | 0.00 | 0.00 | 39 | 1222.6 |
| 20260506110409 | 68 | 188 | 0.0 | 2.0 | 0.00 | 0.00 | 0.00 | 38 | 1222.6 |
| 20260506105909 | 69 | 112 | 1.0 | 3.0 | 0.00 | 0.00 | 0.00 | 37 | 1222.6 |
| 20260506105409 | 69 | 98 | 1.0 | 3.0 | 0.00 | 0.00 | 0.00 | 37 | 1221.5 |
| 20260506104909 | 69 | 82 | 1.0 | 2.0 | 0.00 | 0.00 | 0.00 | 37 | 1221.5 |
| 20260506104409 | 69 | 142 | 1.0 | 2.0 | 0.00 | 0.00 | 0.00 | 36 | 1221.5 |
| 20260506103909 | 69 | 101 | 1.0 | 2.0 | 0.00 | 0.00 | 0.00 | 36 | 1221.5 |
| 20260506103218 | 70 | 105 | 1.0 | 4.0 | 0.00 | 0.00 | 0.00 | 36 | 1221.5 |
| 20260506102718 | 70 | 90 | 0.0 | 4.0 | 0.00 | 0.00 | 0.00 | 35 | 1220.5 |
| 20260506102026 | 70 | 105 | 1.0 | 3.0 | 0.00 | 0.00 | 0.00 | 35 | 1220.5 |
| 20260506101527 | 70 | 112 | 1.0 | 3.0 | 0.00 | 0.00 | 0.00 | 35 | 1220.5 |
| 20260506101026 | 70 | 90 | 1.0 | 4.0 | 0.00 | 0.00 | 0.00 | 35 | 1221.5 |
| 20260506100526 | 71 | 105 | 2.0 | 4.0 | 0.00 | 0.00 | 0.00 | 34 | 1221.5 |
| 20260506100026 | 71 | 128 | 3.0 | 4.0 | 0.00 | 0.00 | 0.00 | 34 | 1221.5 |
| 20260506095526 | 71 | 112 | 2.0 | 3.0 | 0.00 | 0.00 | 0.00 | 34 | 1222.6 |
| 20260506094835 | 71 | 112 | 1.0 | 4.0 | 0.00 | 0.00 | 0.00 | 34 | 1222.6 |
| 20260506094335 | 71 | 112 | 3.0 | 3.0 | 0.00 | 0.00 | 0.00 | 34 | 1222.6 |
| 20260506093835 | 72 | 82 | 2.0 | 4.0 | 0.00 | 0.00 | 0.00 | 34 | 1221.5 |
| 20260506093335 | 72 | 90 | 4.0 | 4.0 | 0.00 | 0.00 | 0.00 | 33 | 1221.5 |
| 20260506092835 | 72 | 112 | 2.0 | 3.0 | 0.00 | 0.00 | 0.00 | 33 | 1221.5 |
| 20260506092335 | 72 | 105 | 2.0 | 4.0 | 0.00 | 0.00 | 0.00 | 33 | 1221.5 |
| 20260506091835 | 72 | 68 | 2.0 | 5.0 | 0.00 | 0.00 | 0.00 | 33 | 1221.5 |
| 20260506091335 | 73 | 112 | 3.0 | 5.0 | 0.00 | 0.00 | 0.00 | 32 | 1221.5 |
| 20260506090835 | 73 | 90 | 2.0 | 6.0 | 0.00 | 0.00 | 0.00 | 32 | 1221.5 |
| 20260506090143 | 73 | 105 | 4.0 | 6.0 | 0.00 | 0.00 | 0.00 | 32 | 1221.5 |
| 20260506085644 | 73 | 158 | 1.0 | 5.0 | 0.00 | 0.00 | 0.00 | 32 | 1221.5 |
| 20260506084952 | 74 | 90 | 5.0 | 5.0 | 0.00 | 0.00 | 0.00 | 31 | 1221.5 |
| 20260506084452 | 74 | 98 | 3.0 | 6.0 | 0.00 | 0.00 | 0.00 | 31 | 1221.5 |
| 20260506083952 | 74 | 105 | 3.0 | 8.0 | 0.00 | 0.00 | 0.00 | 31 | 1221.5 |
| 20260506083452 | 74 | 112 | 8.0 | 8.0 | 0.00 | 0.00 | 0.00 | 31 | 1221.5 |
| 20260506082801 | 74 | 22 | 3.0 | 8.0 | 0.00 | 0.00 | 0.00 | 31 | 1222.6 |
| 20260506082304 | 75 | 112 | 4.0 | 8.0 | 0.00 | 0.00 | 0.00 | 30 | 1222.6 |
| 20260506081801 | 75 | 105 | 3.0 | 5.0 | 0.00 | 0.00 | 0.00 | 30 | 1222.6 |
| 20260506081301 | 75 | 84 | 3.0 | 4.0 | 0.00 | 0.00 | 0.00 | 28 | 1223.6 |
| 20260506080801 | 76 | 101 | 4.0 | 5.0 | 0.00 | 0.00 | 0.00 | 27 | 1223.6 |
| 20260506080301 | 76 | 105 | 4.0 | 6.0 | 0.00 | 0.00 | 0.00 | 26 | 1223.6 |
| 20260506073418 | 79 | 158 | 6.0 | 8.0 | 0.00 | 0.00 | 0.00 | 21 | 1222.6 |
| 20260506072918 | 80 | 105 | 6.0 | 8.0 | 0.00 | 0.00 | 0.00 | 18 | 1222.6 |
| 20260506072418 | 81 | 112 | 4.0 | 10.0 | 0.00 | 0.00 | 0.00 | 12 | 1222.6 |
| 20260506071919 | 82 | 60 | 5.0 | 10.0 | 0.00 | 0.00 | 0.00 | 8 | 1222.6 |
| 20260506071227 | 84 | 60 | 4.0 | 7.0 | 0.00 | 0.00 | 0.00 | 6 | 1222.6 |
| 20260506070727 | 85 | 112 | 3.0 | 7.0 | 0.00 | 0.00 | 0.00 | 8 | 1222.6 |
| 20260506070227 | 84 | 52 | 4.0 | 7.0 | 0.00 | 0.00 | 0.00 | 7 | 1222.6 |
| 20260506062036 | 94 | 52 | 6.0 | 7.0 | 0.00 | 0.00 | 0.00 | 2 | 1220.5 |
| 20260506061345 | 105 | 68 | 5.0 | 6.0 | 0.00 | 0.00 | 0.00 | 2 | 1220.5 |
| 20260506060845 | 102 | 112 | 5.0 | 8.0 | 0.00 | 0.00 | 0.00 | 2 | 1220.5 |
| 20260506060344 | 100 | 68 | 4.0 | 8.0 | 0.00 | 0.00 | 0.00 | 2 | 1220.5 |
| 20260506051002 | 76 | 68 | 7.0 | 9.0 | 0.00 | 0.00 | 0.00 | 33 | 1217.5 |
| 20260506050502 | 76 | 22 | 2.0 | 9.0 | 0.00 | 0.00 | 0.00 | 33 | 1217.5 |
| 20260506044810 | 75 | 34 | 5.0 | 5.0 | 0.00 | 0.00 | 0.00 | 35 | 1215.5 |
| 20260506044310 | 75 | 101 | 5.0 | 6.0 | 0.00 | 0.00 | 0.00 | 36 | 1215.5 |
| 20260506043810 | 74 | 56 | 4.0 | 7.0 | 0.00 | 0.00 | 0.00 | 35 | 1214.5 |
| 20260506043310 | 74 | 30 | 5.0 | 9.0 | 0.00 | 0.00 | 0.00 | 36 | 1214.5 |
| 20260506042619 | 74 | 120 | 4.0 | 9.0 | 0.00 | 0.00 | 0.00 | 37 | 1214.5 |
| 20260506042119 | 74 | 82 | 6.0 | 9.0 | 0.00 | 0.00 | 0.00 | 37 | 1214.5 |
| 20260506041619 | 73 | 90 | 4.0 | 7.0 | 0.00 | 0.00 | 0.00 | 38 | 1214.5 |
| 20260506041119 | 73 | 34 | 5.0 | 12.0 | 0.00 | 0.00 | 0.00 | 38 | 1212.5 |
| 20260506040619 | 73 | 52 | 6.0 | 12.0 | 0.00 | 0.00 | 0.00 | 39 | 1212.5 |
| 20260506040119 | 72 | 22 | 7.0 | 9.0 | 0.00 | 0.00 | 0.00 | 40 | 1212.5 |
| 20260506035619 | 72 | 90 | 4.0 | 8.0 | 0.00 | 0.00 | 0.00 | 40 | 1209.4 |
| 20260506035119 | 72 | 75 | 6.0 | 8.0 | 0.00 | 0.00 | 0.00 | 41 | 1209.4 |
| 20260506034428 | 72 | 62 | 7.0 | 10.0 | 0.00 | 0.00 | 0.00 | 41 | 1209.4 |
| 20260506033928 | 72 | 60 | 6.0 | 10.0 | 0.00 | 0.00 | 0.00 | 42 | 1208.4 |
| 20260506033428 | 71 | 34 | 3.0 | 10.0 | 0.00 | 0.00 | 0.00 | 43 | 1208.4 |
| 20260506032928 | 71 | 68 | 6.0 | 10.0 | 0.00 | 0.00 | 0.00 | 43 | 1208.4 |
| 20260506032237 | 70 | 45 | 7.0 | 11.0 | 0.00 | 0.00 | 0.00 | 44 | 1204.4 |
| 20260506031737 | 70 | 90 | 11.0 | 11.0 | 0.00 | 0.00 | 0.00 | 45 | 1204.4 |
| 20260506031237 | 70 | 30 | 5.0 | 8.0 | 0.00 | 0.00 | 0.00 | 45 | 1201.4 |
| 20260506030737 | 70 | 82 | 6.0 | 8.0 | 0.00 | 0.00 | 0.00 | 46 | 1201.4 |
| 20260506030045 | 70 | 107 | 3.0 | 6.0 | 0.00 | 0.00 | 0.00 | 49 | 1201.4 |
| 20260506025545 | 69 | 98 | 3.0 | 8.0 | 0.00 | 0.00 | 0.00 | 50 | 1199.3 |
| 20260506025045 | 69 | 68 | 6.0 | 8.0 | 0.00 | 0.00 | 0.00 | 50 | 1199.3 |
| 20260506024545 | 68 | 56 | 5.0 | 8.0 | 0.00 | 0.00 | 0.00 | 50 | 1199.3 |
| 20260506024045 | 68 | 79 | 7.0 | 9.0 | 0.00 | 0.00 | 0.00 | 51 | 1197.3 |
| 20260506023354 | 68 | 90 | 5.0 | 9.0 | 0.00 | 0.00 | 0.00 | 53 | 1197.3 |
| 20260506022854 | 67 | 52 | 4.0 | 9.0 | 0.00 | 0.00 | 0.00 | 53 | 1197.3 |
| 20260506022354 | 67 | 60 | 4.0 | 11.0 | 0.00 | 0.00 | 0.00 | 54 | 1192.3 |
| 20260506021854 | 67 | 68 | 4.0 | 11.0 | 0.00 | 0.00 | 0.00 | 55 | 1192.3 |
| 20260506021354 | 66 | 90 | 6.0 | 9.0 | 0.00 | 0.00 | 0.00 | 56 | 1192.3 |
| 20260506020854 | 66 | 90 | 6.0 | 9.0 | 0.00 | 0.00 | 0.00 | 57 | 1193.3 |
| 20260506020203 | 66 | 75 | 6.0 | 9.0 | 0.00 | 0.00 | 0.00 | 58 | 1193.3 |
| 20260506015703 | 65 | 112 | 3.0 | 9.0 | 0.00 | 0.00 | 0.00 | 58 | 1193.3 |
| 20260506015203 | 65 | 98 | 5.0 | 9.0 | 0.00 | 0.00 | 0.00 | 59 | 1193.3 |
| 20260506014703 | 65 | 60 | 5.0 | 9.0 | 0.00 | 0.00 | 0.00 | 59 | 1193.3 |
| 20260506014203 | 64 | 45 | 8.0 | 9.0 | 0.00 | 0.00 | 0.00 | 60 | 1191.3 |
| 20260506013703 | 64 | 90 | 5.0 | 8.0 | 0.00 | 0.00 | 0.00 | 61 | 1191.3 |
| 20260506013012 | 64 | 90 | 5.0 | 10.0 | 0.00 | 0.00 | 0.00 | 62 | 1191.3 |
| 20260506012321 | 64 | 68 | 10.0 | 10.0 | 0.00 | 0.00 | 0.00 | 63 | 1190.2 |
| 20260506011820 | 63 | 68 | 6.0 | 9.0 | 0.00 | 0.00 | 0.00 | 63 | 1190.2 |
| 20260506011320 | 63 | 76 | 8.0 | 9.0 | 0.00 | 0.00 | 0.00 | 64 | 1190.2 |
| 20260506010820 | 63 | 68 | 8.0 | 9.0 | 0.00 | 0.00 | 0.00 | 64 | 1190.2 |
| 20260506010321 | 63 | 82 | 4.0 | 6.0 | 0.00 | 0.00 | 0.00 | 65 | 1190.2 |
| 20260506005821 | 63 | 79 | 4.0 | 10.0 | 0.00 | 0.00 | 0.00 | 65 | 1190.2 |
| 20260506005320 | 63 | 90 | 10.0 | 10.0 | 0.00 | 0.00 | 0.00 | 66 | 1189.2 |
| 20260506004821 | 62 | 68 | 3.0 | 7.0 | 0.00 | 0.00 | 0.00 | 66 | 1189.2 |
| 20260506004129 | 62 | 79 | 6.0 | 7.0 | 0.00 | 0.00 | 0.00 | 67 | 1189.2 |
| 20260506003629 | 62 | 90 | 2.0 | 6.0 | 0.00 | 0.00 | 0.00 | 67 | 1189.2 |
| 20260506003129 | 61 | 112 | 5.0 | 6.0 | 0.00 | 0.00 | 0.00 | 67 | 1189.2 |
| 20260506002629 | 61 | 90 | 1.0 | 4.0 | 0.00 | 0.00 | 0.00 | 67 | 1186.2 |
| 20260506002129 | 61 | 79 | 4.0 | 4.0 | 0.00 | 0.00 | 0.00 | 67 | 1186.2 |
| 20260506001438 | 61 | 90 | 4.0 | 4.0 | 0.00 | 0.00 | 0.00 | 67 | 1186.2 |
| 20260506000938 | 60 | 90 | 4.0 | 4.0 | 0.00 | 0.00 | 0.00 | 67 | 1189.2 |
| 20260506000438 | 60 | 68 | 4.0 | 6.0 | 0.00 | 0.00 | 0.00 | 67 | 1189.2 |
| 20260505235938 | 60 | 101 | 5.0 | 6.0 | 0.00 | 0.00 | 0.00 | 67 | 1189.2 |
| 20260505235246 | 60 | 0.0 | 0.0 | 0.00 | 0.00 | 0.00 | 67 | 1186.2 | |
| 20260505234747 | 59 | 0.0 | 0.0 | 0.00 | 0.00 | 0.00 | 67 | 1186.2 | |
| 20260505234247 | 59 | 0.0 | 0.0 | 0.00 | 0.00 | 0.00 | 67 | 1188.2 | |
| 20260505233747 | 59 | 0.0 | 0.0 | 0.00 | 0.00 | 0.00 | 67 | 1188.2 | |
| 20260505233246 | 59 | 0.0 | 0.0 | 0.00 | 0.00 | 0.00 | 67 | 1188.2 | |
| 20260505232747 | 59 | 0.0 | 0.0 | 0.00 | 0.00 | 0.00 | 67 | 1191.3 | |
| 20260505232055 | 59 | 0.0 | 0.0 | 0.00 | 0.00 | 0.00 | 67 | 1191.3 | |
| 20260505231555 | 59 | 0.0 | 0.0 | 0.00 | 0.00 | 0.00 | 66 | 1191.3 | |
| 20260505231055 | 59 | 0.0 | 0.0 | 0.00 | 0.00 | 0.00 | 66 | 1193.3 | |
| 20260505230555 | 59 | 0.0 | 0.0 | 0.00 | 0.00 | 0.00 | 66 | 1193.3 | |
| 20260505230055 | 59 | 0.0 | 0.0 | 0.00 | 0.00 | 0.00 | 66 | 1193.3 | |
| 20260505225555 | 59 | 0.0 | 0.0 | 0.00 | 0.00 | 0.00 | 66 | 1197.3 | |
| 20260505224904 | 59 | 0.0 | 0.0 | 0.00 | 0.00 | 0.00 | 66 | 1197.3 | |
| 20260505224404 | 59 | 0.0 | 0.0 | 0.00 | 0.00 | 0.00 | 66 | 1197.3 | |
| 20260505223903 | 59 | 0.0 | 0.0 | 0.00 | 0.00 | 0.00 | 65 | 1196.3 | |
| 20260505223404 | 59 | 0.0 | 0.0 | 0.00 | 0.00 | 0.00 | 65 | 1196.3 | |
| 20260505222712 | 59 | 0.0 | 0.0 | 0.00 | 0.00 | 0.00 | 65 | 1197.3 | |
| 20260505222213 | 59 | 0.0 | 0.0 | 0.00 | 0.00 | 0.00 | 65 | 1197.3 | |
| 20260505221712 | 59 | 0.0 | 0.0 | 0.00 | 0.00 | 0.00 | 65 | 1197.3 | |
| 20260505221212 | 60 | 0.0 | 0.0 | 0.00 | 0.00 | 0.00 | 65 | 1196.3 | |
| 20260505220712 | 60 | 0 | 0.0 | 4.0 | 0.00 | 0.00 | 0.00 | 65 | 1196.3 |
| 20260505220021 | 60 | 112 | 4.0 | 4.0 | 0.00 | 0.00 | 0.00 | 64 | 1196.3 |
| 20260505215521 | 59 | 112 | 4.0 | 4.0 | 0.00 | 0.00 | 0.00 | 64 | 1195.3 |
| 20260505215021 | 60 | 112 | 3.0 | 4.0 | 0.00 | 0.00 | 0.00 | 64 | 1195.3 |
| 20260505214521 | 60 | 112 | 3.0 | 4.0 | 0.00 | 0.00 | 0.00 | 64 | 1195.3 |
| 20260505214021 | 59 | 112 | 4.0 | 4.0 | 0.00 | 0.00 | 0.00 | 63 | 1200.3 |
| 20260505213521 | 60 | 135 | 3.0 | 4.0 | 0.00 | 0.00 | 0.00 | 63 | 1200.3 |
| 20260505212830 | 59 | 124 | 3.0 | 4.0 | 0.00 | 0.00 | 0.00 | 63 | 1200.3 |
| 20260505212330 | 59 | 112 | 3.0 | 3.0 | 0.00 | 0.00 | 0.00 | 62 | 1201.4 |
| 20260505211830 | 59 | 112 | 3.0 | 4.0 | 0.00 | 0.00 | 0.00 | 62 | 1201.4 |
| 20260505211138 | 59 | 112 | 3.0 | 6.0 | 0.00 | 0.00 | 0.00 | 62 | 1201.4 |
| 20260505210639 | 59 | 90 | 6.0 | 6.0 | 0.00 | 0.00 | 0.00 | 62 | 1201.4 |
| 20260505210139 | 60 | 90 | 6.0 | 6.0 | 0.00 | 0.00 | 0.00 | 61 | 1201.4 |
| 20260505205638 | 60 | 90 | 6.0 | 6.0 | 0.00 | 0.00 | 0.00 | 61 | 1201.4 |
| 20260505205139 | 60 | 90 | 3.0 | 3.0 | 0.00 | 0.00 | 0.00 | 61 | 1201.4 |
| 20260505204638 | 60 | 101 | 3.0 | 3.0 | 0.00 | 0.00 | 0.00 | 61 | 1201.4 |
| 20260505203947 | 60 | 112 | 3.0 | 3.0 | 0.00 | 0.00 | 0.00 | 60 | 1202.4 |
| 20260505203448 | 60 | 0.0 | 0.0 | 0.00 | 0.00 | 0.00 | 60 | 1202.4 | |
| 20260505202947 | 60 | 0.0 | 0.0 | 0.00 | 0.00 | 0.00 | 60 | 1202.4 | |
| 20260505202447 | 60 | 0.0 | 0.0 | 0.00 | 0.00 | 0.00 | 60 | 1201.4 | |
| 20260505201756 | 60 | 0.0 | 0.0 | 0.00 | 0.00 | 0.00 | 59 | 1201.4 | |
| 20260505201256 | 60 | 0.0 | 0.0 | 0.00 | 0.00 | 0.00 | 59 | 1202.4 | |
| 20260505200756 | 60 | 0.0 | 0.0 | 0.00 | 0.00 | 0.00 | 59 | 1202.4 | |
| 20260505200256 | 60 | 0.0 | 0.0 | 0.00 | 0.00 | 0.00 | 59 | 1202.4 | |
| 20260505195756 | 60 | 0.0 | 0.0 | 0.00 | 0.00 | 0.00 | 58 | 1204.4 | |
| 20260505195256 | 60 | 0.0 | 0.0 | 0.00 | 0.00 | 0.00 | 58 | 1204.4 | |
| 20260505194604 | 60 | 0.0 | 0.0 | 0.00 | 0.00 | 0.00 | 58 | 1204.4 | |
| 20260505194105 | 60 | 0.0 | 0.0 | 0.00 | 0.00 | 0.00 | 58 | 1204.4 | |
| 20260505193605 | 60 | 0.0 | 0.0 | 0.00 | 0.00 | 0.00 | 58 | 1204.4 | |
| 20260505193104 | 60 | 0.0 | 0.0 | 0.00 | 0.00 | 0.00 | 58 | 1204.4 | |
| 20260505192604 | 61 | 0.0 | 0.0 | 0.00 | 0.00 | 0.00 | 58 | 1205.4 | |
| 20260505192104 | 61 | 0.0 | 0.0 | 0.00 | 0.00 | 0.00 | 57 | 1205.4 | |
| 20260505191604 | 61 | 0.0 | 0.0 | 0.00 | 0.00 | 0.00 | 57 | 1205.4 | |
| 20260505190913 | 61 | 0.0 | 0.0 | 0.00 | 0.00 | 0.00 | 57 | 1206.4 | |
| 20260505190413 | 61 | 0.0 | 0.0 | 0.00 | 0.00 | 0.00 | 57 | 1206.4 | |
| 20260505185913 | 61 | 0.0 | 0.0 | 0.00 | 0.00 | 0.00 | 57 | 1206.4 | |
| 20260505185413 | 61 | 0.0 | 0.0 | 0.00 | 0.00 | 0.00 | 56 | 1207.4 | |
| 20260505184913 | 61 | 180 | 2.0 | 2.0 | 0.00 | 0.00 | 0.00 | 56 | 1207.4 |
| 20260505184222 | 61 | 180 | 2.0 | 2.0 | 0.00 | 0.00 | 0.00 | 56 | 1206.4 |
| 20260505183722 | 61 | 180 | 2.0 | 4.0 | 0.00 | 0.00 | 0.00 | 56 | 1206.4 |
| 20260505183030 | 61 | 135 | 4.0 | 4.0 | 0.00 | 0.00 | 0.00 | 55 | 1206.4 |
| 20260505182530 | 61 | 135 | 4.0 | 4.0 | 0.00 | 0.00 | 0.00 | 55 | 1207.4 |
| 20260505182031 | 61 | 135 | 4.0 | 4.0 | 0.00 | 0.00 | 0.00 | 55 | 1207.4 |
| 20260505181530 | 61 | 0.0 | 0.0 | 0.00 | 0.00 | 0.00 | 55 | 1207.4 | |
| 20260505181030 | 61 | 112 | 4.0 | 4.0 | 0.00 | 0.00 | 0.00 | 55 | 1208.4 |
| 20260505180530 | 61 | 112 | 4.0 | 4.0 | 0.00 | 0.00 | 0.00 | 55 | 1208.4 |
| 20260505175839 | 61 | 128 | 4.0 | 4.0 | 0.00 | 0.00 | 0.00 | 54 | 1208.4 |
| 20260505175339 | 61 | 112 | 1.0 | 1.0 | 0.00 | 0.00 | 0.00 | 54 | 1208.4 |
| 20260505174839 | 61 | 112 | 1.0 | 5.0 | 0.00 | 0.00 | 0.00 | 54 | 1208.4 |
| 20260505174339 | 61 | 101 | 3.0 | 5.0 | 0.00 | 0.00 | 0.00 | 54 | 1208.4 |
| 20260505173839 | 61 | 90 | 2.0 | 2.0 | 0.00 | 0.00 | 0.00 | 54 | 1208.4 |
| 20260505173339 | 61 | 112 | 2.0 | 3.0 | 0.00 | 0.00 | 0.00 | 54 | 1208.4 |
| 20260505172839 | 61 | 112 | 2.0 | 3.0 | 0.00 | 0.00 | 0.00 | 54 | 1208.4 |
| 20260505172148 | 61 | 79 | 3.0 | 3.0 | 0.00 | 0.00 | 0.00 | 54 | 1207.4 |
| 20260505171648 | 61 | 112 | 3.0 | 3.0 | 0.00 | 0.00 | 0.00 | 54 | 1207.4 |
| 20260505171148 | 61 | 124 | 2.0 | 2.0 | 0.00 | 0.00 | 0.00 | 54 | 1207.4 |
| 20260505170648 | 62 | 158 | 2.0 | 3.0 | 0.00 | 0.00 | 0.00 | 54 | 1207.4 |
| 20260505165956 | 62 | 68 | 2.0 | 3.0 | 0.00 | 0.00 | 0.00 | 54 | 1207.4 |
| 20260505165456 | 62 | 112 | 1.0 | 3.0 | 0.00 | 0.00 | 0.00 | 54 | 1207.4 |
| 20260505164805 | 62 | 82 | 2.0 | 3.0 | 0.00 | 0.00 | 0.00 | 54 | 1207.4 |
| 20260505164305 | 62 | 101 | 2.0 | 3.0 | 0.00 | 0.00 | 0.00 | 54 | 1207.4 |
| 20260505163805 | 62 | 90 | 2.0 | 3.0 | 0.00 | 0.00 | 0.00 | 54 | 1206.4 |
| 20260505163305 | 62 | 75 | 2.0 | 3.0 | 0.00 | 0.00 | 0.00 | 54 | 1206.4 |
| 20260505162805 | 62 | 45 | 3.0 | 3.0 | 0.00 | 0.00 | 0.00 | 54 | 1206.4 |
| 20260505162114 | 62 | 112 | 1.0 | 1.0 | 0.00 | 0.00 | 0.00 | 54 | 1204.4 |
| 20260505161614 | 62 | 112 | 1.0 | 4.0 | 0.00 | 0.00 | 0.00 | 54 | 1204.4 |
| 20260505161114 | 62 | 112 | 4.0 | 4.0 | 0.00 | 0.00 | 0.00 | 54 | 1205.4 |
| 20260505160614 | 62 | 180 | 4.0 | 4.0 | 0.00 | 0.00 | 0.00 | 55 | 1205.4 |
| 20260505160114 | 62 | 22 | 2.0 | 2.0 | 0.00 | 0.00 | 0.00 | 55 | 1205.4 |
| 20260505153231 | 63 | 101 | 0.0 | 2.0 | 0.00 | 0.00 | 0.00 | 55 | 1204.4 |
| 20260505152731 | 63 | 128 | 1.0 | 2.0 | 0.00 | 0.00 | 0.00 | 55 | 1203.4 |
| 20260505152231 | 63 | 112 | 2.0 | 2.0 | 0.00 | 0.00 | 0.00 | 55 | 1203.4 |
| 20260505151730 | 63 | 135 | 2.0 | 2.0 | 0.00 | 0.00 | 0.00 | 55 | 1203.4 |
| 20260505151230 | 64 | 90 | 2.0 | 3.0 | 0.00 | 0.00 | 0.00 | 55 | 1204.4 |
| 20260505150539 | 64 | 90 | 3.0 | 3.0 | 0.00 | 0.00 | 0.00 | 55 | 1204.4 |